www.pogodaiklimat.ru

Погода и климат >> Архив погоды >> Бразилия >> Piripiri


ПОГОДА в Piripiri

  • Прогноз погоды в Piripiri
  • Монитор погоды в Piripiri
  • Климат города

АРХИВ ПОГОДЫ в Piripiri

Время (UTC), дата Ветер
(напр.,м/с)
 
Видим.   Явления Облачность Т
(С)
Тd
(С)
f
(%)
Тe
(С)
Тes
(С)
Комфортность P
(гПа)
Po
(гПа)
Тmin
(С)
Tmax
(С)
R
(мм)
R24
(мм)
S
(см)
22 13.11 С 2
{4}
н/о н/о +33.1 +21.2 50 +41 +41 опасность
перегрева
1006.5 988.9
23 13.11 С 3
{5}
н/о н/о +31.2 +22.2 59 +40 +40 очень
душно
1007.8 990.1
00 14.11 С 1
{5}
н/о н/о +29.6 +22.5 66 +39 +39 очень
душно
1008.8 991.0
01 14.11 С 1
{3}
н/о н/о +28.4 +22.5 70 +37 +37 очень
душно
1008.9 991.0
02 14.11 С 1
{3}
н/о н/о +27.5 +22.6 75 +36 +36 очень
душно
1008.5 990.6
03 14.11 С 1
{2}
н/о н/о +26.8 +22.6 78 +35 +35 очень
душно
1008.1 990.1
09 14.11 ЮВ 1
{2}
н/о н/о +25.0 +22.3 85 +33 +33 очень
душно
1010.7 992.6
10 14.11 Ю 1
{2}
н/о н/о +27.6 +22.9 76 +37 +37 очень
душно
1011.1 993.1
11 14.11 В 3
{4}
н/о н/о +31.0 +20.3 53 +38 +38 очень
душно
1010.8 993.0
12 14.11 В 2
{5}
н/о н/о +32.5 +19.6 47 +38 +38 очень
душно
1010.4 992.7
13 14.11 В 2
{5}
н/о н/о +35.2 +18.2 37 +39 +39 очень
душно
1009.5 992.0
14 14.11 В 2
{5}
н/о н/о +37.2 +16.7 30 +40 +40 очень
душно
1008.4 991.0
15 14.11 СВ 2
{4}
н/о н/о +37.6 +16.4 29 +40 +40 очень
душно
1006.9 989.6
16 14.11 В 1
{4}
н/о н/о +38.3 +15.8 27 +40 +40 очень
душно
1005.6 988.3
17 14.11 СВ 2
{4}
н/о н/о +38.8 +15.6 26 +40 +40 очень
душно
1004.4 987.2
18 14.11 В 1
{4}
н/о н/о +38.6 +14.6 24 +39 +39 душно 1003.8 986.6
19 14.11 ЮВ 1
{5}
н/о н/о +39.0 +14.4 23 +40 +40 очень
душно
1003.5 986.3
20 14.11 В 1
{3}
н/о н/о +38.2 +14.2 24 +39 +39 очень
душно
1003.7 986.5
21 14.11 В 1
{3}
н/о н/о +36.7 +14.6 27 +38 +38 очень
душно
1004.3 987.0
22 14.11 С 2
{4}
н/о н/о +33.7 +18.4 40 +38 +38 очень
душно
1005.5 988.0
23 14.11 С 2
{5}
н/о н/о +31.7 +21.4 54 +39 +39 очень
душно
1006.7 989.0
00 15.11 С 2
{4}
н/о н/о +30.3 +21.9 61 +39 +39 очень
душно
1007.5 989.7
01 15.11 С 2
{3}
н/о н/о +29.0 +21.8 65 +37 +37 очень
душно
1007.5 989.7
02 15.11 С 1
{3}
н/о н/о +27.9 +21.7 69 +36 +36 очень
душно
1007.6 989.7
03 15.11 С 1
{2}
н/о н/о +27.1 +21.2 70 +34 +34 очень
душно
1007.2 989.3
04 15.11 СЗ 1
{2}
н/о н/о +27.0 +21.0 70 +34 +34 очень
душно
1006.9 989.0
05 15.11 СЗ 1
{2}
н/о н/о +26.7 +20.9 71 +34 +34 очень
душно
1006.9 988.9
06 15.11 ЮЗ 1
{1}
н/о н/о +25.9 +20.8 73 +32 +32 очень
душно
1007.3 989.3
07 15.11 ЮВ 1
{1}
н/о н/о +26.4 +20.9 72 +33 +33 очень
душно
1008.1 990.1
08 15.11 ЮВ 1
{2}
н/о н/о +25.9 +21.2 75 +33 +33 очень
душно
1008.8 990.8
09 15.11 Ю 1
{2}
н/о н/о +25.8 +21.5 77 +33 +33 очень
душно
1009.7 991.6
10 15.11 ЮВ 2
{3}
н/о н/о +29.0 +19.7 57 +35 +35 очень
душно
1010.3 992.4
11 15.11 В 3
{4}
н/о н/о +30.6 +18.7 49 +36 +36 очень
душно
1010.0 992.2
12 15.11 В 2
{5}
н/о н/о +32.0 +18.6 45 +37 +37 очень
душно
1010.5 992.8
13 15.11 В 2
{4}
н/о н/о +33.5 +17.4 38 +37 +37 очень
душно
1010.2 992.6
14 15.11 В 2
{4}
н/о н/о +36.3 +16.9 32 +39 +39 очень
душно
1009.1 991.7
15 15.11 СВ 1
{4}
н/о н/о +36.9 +16.4 30 +39 +39 очень
душно
1007.9 990.5
16 15.11 В 2
{3}
н/о н/о +37.1 +16.1 29 +39 +39 очень
душно
1006.6 989.2
17 15.11 В 1
{3}
н/о н/о +37.6 +15.5 27 +39 +39 очень
душно
1005.3 988.0
18 15.11 В 1
{3}
н/о н/о +38.3 +15.5 26 +40 +40 очень
душно
1004.7 987.4
20 15.11 С 2
{3}
н/о н/о +36.4 +15.8 30 +38 +38 очень
душно
1005.3 987.9
21 15.11
{3}
н/о н/о +35.0 +16.1 32 1005.9 988.4
23 15.11 С 2
{4}
н/о н/о +31.0 +20.5 54 +38 +38 очень
душно
1007.7 990.0
22 15.11 С 2
{5}
н/о н/о +32.2 +20.3 49 +39 +39 очень
душно
1006.8 989.2
00 16.11 С 2
{4}
н/о н/о +29.9 +19.2 53 +36 +36 очень
душно
1008.6 990.8
01 16.11 СЗ 1
{4}
н/о н/о +28.5 +20.3 61 +35 +35 очень
душно
1009.2 991.3
02 16.11 С 1
{2}
н/о н/о +27.8 +20.9 66 +35 +35 очень
душно
1009.1 991.2
03 16.11 С 1
{2}
н/о н/о +26.9 +21.1 71 +34 +34 очень
душно
1008.8 990.8
05 16.11 СЗ 1
{2}
н/о н/о +25.5 +21.1 77 +32 +32 очень
душно
1008.7 990.6
04 16.11 С 1
{2}
н/о н/о +26.2 +21.1 74 +33 +33 очень
душно
1008.6 990.6
06 16.11 В 1
{1}
н/о н/о +25.8 +21.2 76 +33 +33 очень
душно
1009.4 991.3
07 16.11 ЮВ 1
{1}
н/о н/о +25.5 +20.9 76 +32 +32 очень
душно
1010.0 991.9
08 16.11 Ю 1
{1}
н/о н/о +24.9 +20.9 78 +31 +31 очень
душно
1011.1 993.0
09 16.11 ЮВ 1
{2}
н/о н/о +25.9 +19.9 70 +32 +32 очень
душно
1011.9 993.8
11 16.11 В 3
{5}
н/о н/о +30.0 +18.1 49 +35 +35 очень
душно
1012.5 994.6
10 16.11 В 2
{2}
н/о н/о +28.6 +17.8 52 +33 +33 очень
душно
1012.3 994.4
12 16.11 В 2
{5}
н/о н/о +31.6 +18.4 45 +36 +36 очень
душно
1012.4 994.6
13 16.11 В 3
{5}
н/о н/о +33.7 +17.3 38 +37 +37 очень
душно
1011.8 994.2
14 16.11 СВ 2
{5}
н/о н/о +33.8 +17.0 37 +37 +37 очень
душно
1011.2 993.6
15 16.11 СВ 2
{5}
н/о н/о +35.2 +16.9 34 +38 +38 очень
душно
1010.0 992.5
17 16.11 СВ 2
{5}
н/о н/о +36.3 +16.3 31 +39 +39 очень
душно
1007.6 990.2
16 16.11 СВ 2
{5}
н/о н/о +36.2 +16.8 32 +39 +39 очень
душно
1008.8 991.4
18 16.11 В 2
{5}
н/о н/о +36.1 +15.7 30 +38 +38 очень
душно
1007.0 989.6
19 16.11 СВ 2
{4}
н/о н/о +35.8 +15.7 30 +38 +38 очень
душно
1007.0 989.6
20 16.11 СВ 2
{4}
н/о н/о +35.5 +15.7 31 +38 +38 очень
душно
1007.3 989.8
21 16.11 СВ 1
{3}
н/о н/о +33.7 +15.7 34 +36 +36 очень
душно
1007.7 990.1
23 16.11 С 2
{5}
н/о н/о +30.3 +19.0 51 +36 +36 очень
душно
1009.3 991.5
22 16.11 С 2
{4}
н/о н/о +31.8 +17.2 42 +36 +36 очень
душно
1008.5 990.8
00 17.11
{4}
н/о н/о +28.9 +19.3 56 1010.0 992.1
01 17.11 СВ 1
{3}
н/о н/о +27.7 +19.7 62 +34 +34 очень
душно
1010.1 992.1
02 17.11 С 1
{2}
н/о н/о +27.0 +19.8 65 +33 +33 очень
душно
1009.9 991.9
03 17.11 СЗ 1
{2}
н/о н/о +25.4 +19.8 71 +31 +31 очень
душно
1009.6 991.5
05 17.11 СЗ 1
{2}
н/о н/о +24.3 +18.7 71 +29 +29 душно 1008.8 990.7
04 17.11 С 1
{2}
н/о н/о +25.0 +19.6 72 +30 +30 душно 1009.0 990.9
06 17.11 З 1
{1}
н/о н/о +23.6 +19.0 75 +28 +28 душно 1008.9 990.7
07 17.11 З 1
{1}
н/о н/о +23.2 +19.1 78 +30 +30 очень
душно
1009.7 991.5
08 17.11 ЮВ 1
{2}
н/о н/о +22.9 +18.9 78 +29 +29 очень
душно
1010.5 992.2
09 17.11 ЮВ 1
{2}
н/о н/о +23.6 +19.4 77 +29 +29 душно 1011.3 993.1
11 17.11 ЮВ 1
{2}
н/о н/о +29.8 +18.7 51 +35 +35 очень
душно
1011.5 993.6
10 17.11 ЮЗ 1
{2}
н/о н/о +26.7 +19.1 63 +32 +32 очень
душно
1011.6 993.6
12 17.11 В 2
{3}
н/о н/о +32.4 +18.0 42 +37 +37 очень
душно
1011.1 993.4
13 17.11 В 2
{5}
н/о н/о +35.2 +15.8 32 +37 +37 очень
душно
1010.6 993.1
14 17.11 ЮВ 2
{5}
н/о н/о +37.0 +15.1 27 +38 +38 душно 1009.6 992.2
15 17.11 В 2
{5}
н/о н/о +38.2 +12.5 22 +38 +38 очень
жарко
1008.5 991.2
17 17.11 СВ 2
{3}
н/о н/о +39.2 +10.7 18 +38 +38 очень
жарко
1006.4 989.2
16 17.11 ЮВ 2
{4}
н/о н/о +38.2 +11.3 20 +37 +37 очень
жарко
1007.4 990.1
18 17.11 СВ 2
{4}
н/о н/о +39.0 +10.5 18 +38 +38 очень
жарко
1005.6 988.4
19 17.11 В 2
{4}
н/о н/о +39.1 +10.0 17 +37 +37 очень
жарко
1005.5 988.3
20 17.11 СВ 1
{3}
н/о н/о +38.3 +10.6 19 +37 +37 очень
жарко
1005.7 988.4
21 17.11 СВ 1
{2}
н/о н/о +36.0 +11.7 23 +36 +36 очень
жарко
1006.2 988.8
23 17.11 С 2
{3}
н/о н/о +31.6 +18.3 45 +36 +36 очень
душно
1008.2 990.5
22 17.11 СВ 1
{2}
н/о н/о +34.7 +12.2 26 +35 +35 очень
жарко
1006.9 989.4
00 18.11 С 2
{3}
н/о н/о +30.3 +20.4 55 +37 +37 очень
душно
1009.0 991.2
01 18.11
{3}
н/о н/о +29.0 +21.5 64 1009.9 992.0
02 18.11 С 2
{3}
н/о н/о +27.6 +21.6 70 +35 +35 очень
душно
1009.7 991.7
03 18.11 С 1
{3}
н/о н/о +26.8 +21.7 74 +34 +34 очень
душно
1009.2 991.2
05 18.11 С 1
{2}
н/о н/о +25.5 +21.9 81 +33 +33 очень
душно
1007.8 989.8
04 18.11 С 1
{2}
н/о н/о +26.1 +21.8 77 +34 +34 очень
душно
1008.5 990.5
06 18.11 С 1
{2}
н/о н/о +24.9 +21.7 82 +32 +32 очень
душно
1007.9 989.8
07 18.11 СЗ 1
{1}
н/о н/о +24.3 +21.6 85 +31 +31 очень
душно
1008.4 990.3
08 18.11 Ю 2
{2}
н/о н/о +23.6 +21.3 87 +30 +30 очень
душно
1009.8 991.6
09 18.11 Ю 1
{3}
н/о н/о +24.9 +21.7 82 +32 +32 очень
душно
1010.3 992.2
11 18.11 ЮВ 1
{3}
н/о н/о +31.6 +18.9 47 +37 +37 очень
душно
1010.7 993.0
10 18.11 Ю 2
{3}
н/о н/о +27.4 +21.9 72 +35 +35 очень
душно
1010.7 992.7
12 18.11 В 3
{5}
н/о н/о +34.4 +14.6 31 +36 +36 душно 1010.4 992.8
13 18.11 В 2
{5}
н/о н/о +36.4 +14.0 26 +37 +37 очень
жарко
1009.9 992.4
14 18.11 ЮВ 3
{5}
н/о н/о +37.4 +14.1 25 +38 +38 душно 1009.1 991.7
15 18.11 ЮВ 2
{5}
н/о н/о +38.7 +14.2 23 +39 +39 душно 1007.8 990.5
17 18.11 ЮВ 2
{4}
н/о н/о +39.0 +13.0 21 +39 +39 очень
жарко
1006.0 988.8
16 18.11 ЮВ 2
{5}
н/о н/о +38.1 +14.1 24 +39 +39 очень
душно
1007.1 989.8
18 18.11 ЮВ 2
{4}
н/о н/о +39.6 +12.2 20 +39 +39 очень
жарко
1005.4 988.2
19 18.11 ЮВ 2
{5}
н/о н/о +39.2 +11.4 19 +38 +38 очень
жарко
1005.1 987.9
20 18.11 Ю 1
{3}
н/о н/о +38.8 +11.6 20 +38 +38 очень
жарко
1005.3 988.1
21 18.11 ЮВ 1
{2}
н/о н/о +36.7 +12.9 24 +37 +37 очень
жарко
1006.0 988.6
23 18.11 С 2
{3}
н/о н/о +31.5 +20.3 51 +38 +38 очень
душно
1008.3 990.6
22 18.11 В 1
{2}
н/о н/о +34.9 +14.1 29 +36 +36 душно 1006.8 989.3
00 19.11 С 2
{3}
н/о н/о +30.1 +21.3 59 +38 +38 очень
душно
1009.2 991.4
01 19.11 С 1
{3}
н/о н/о +28.8 +21.3 64 +36 +36 очень
душно
1009.5 991.6
02 19.11 С 1
{3}
н/о н/о +27.8 +21.3 68 +35 +35 очень
душно
1009.2 991.3
03 19.11 С 1
{1}
н/о н/о +27.0 +21.2 71 +34 +34 очень
душно
1008.7 990.7
05 19.11 ЮЗ 1
{2}
н/о н/о +24.4 +20.8 80 +30 +30 очень
душно
1007.8 989.7
04 19.11
{1}
н/о н/о +26.3 +21.2 74 1007.9 989.9
06 19.11 Ю 1
{2}
н/о н/о +24.9 +21.1 79 +31 +31 очень
душно
1007.8 989.7
07 19.11 ЮВ 1
{2}
н/о н/о +24.3 +20.9 81 +30 +30 очень
душно
1008.6 990.5
08 19.11 Ю 1
{3}
н/о н/о +23.8 +20.9 84 +30 +30 очень
душно
1009.4 991.2
09 19.11 Ю 1
{2}
н/о н/о +25.3 +21.2 78 +32 +32 очень
душно
1010.2 992.1
11 19.11 Ю 2
{3}
н/о н/о +30.6 +20.7 56 +38 +38 очень
душно
1010.8 993.0
10 19.11 Ю 2
{3}
н/о н/о +27.7 +21.4 69 +35 +35 очень
душно
1010.5 992.5
12 19.11 ЮВ 2
{3}
н/о н/о +33.8 +18.9 41 +39 +39 очень
душно
1010.5 992.9
13 19.11 В 2
{5}
н/о н/о +35.0 +16.3 33 +38 +38 очень
душно
1010.0 992.5
14 19.11 ЮВ 2
{4}
н/о н/о +36.4 +15.5 29 +38 +38 очень
душно
1009.2 991.8
15 19.11 В 2
{4}
н/о н/о +37.2 +15.4 28 +39 +39 очень
душно
1008.0 990.6
17 19.11 СВ 2
{4}
н/о н/о +39.2 +14.0 23 +40 +40 очень
душно
1005.5 988.3
16 19.11 В 2
{4}
н/о н/о +37.9 +15.2 26 +39 +39 очень
душно
1006.7 989.4
18 19.11 В 2
{4}
н/о н/о +39.1 +13.0 21 +39 +39 очень
жарко
1004.9 987.7
19 19.11 В 2
{3}
н/о н/о +39.1 +12.2 20 +39 +39 очень
жарко
1004.7 987.5
20 19.11 СВ 1
{3}
н/о н/о +37.8 +12.3 22 +37 +37 очень
жарко
1005.2 987.9
21 19.11 В 1
{2}
н/о н/о +36.5 +11.9 23 +36 +36 очень
жарко
1005.8 988.4
23 19.11 С 2
{4}
н/о н/о +32.0 +17.2 41 +36 +36 очень
душно
1008.0 990.3
22 19.11 В 2
{2}
н/о н/о +35.1 +11.4 24 +35 +35 очень
жарко
1006.6 989.1
00 20.11 С 2
{4}
н/о н/о +30.2 +20.1 55 +37 +37 очень
душно
1008.5 990.7
01 20.11 С 2
{3}
н/о н/о +28.7 +20.6 62 +36 +36 очень
душно
1008.9 991.0
02 20.11 С 1
{3}
н/о н/о +28.0 +21.0 66 +35 +35 очень
душно
1008.9 991.0
03 20.11 З 1
{2}
н/о н/о +27.0 +20.9 69 +34 +34 очень
душно
1008.5 990.5
05 20.11 СЗ 1
{1}
н/о н/о +25.9 +20.9 74 +32 +32 очень
душно
1007.5 989.5
04 20.11 С 1
{2}
н/о н/о +26.9 +20.7 69 +34 +34 очень
душно
1007.7 989.7
06 20.11 Ю 1
{1}
н/о н/о +25.2 +20.8 77 +32 +32 очень
душно
1007.7 989.6
07 20.11 Ю 1
{2}
н/о н/о +24.6 +21.0 80 +31 +31 очень
душно
1008.4 990.3
08 20.11 Ю 1
{2}
н/о н/о +24.4 +20.9 81 +31 +31 очень
душно
1008.9 990.8
09 20.11 Ю 1
{2}
н/о н/о +25.1 +21.1 78 +32 +32 очень
душно
1009.7 991.6
11 20.11 Ю 2
{3}
н/о н/о +31.1 +19.0 49 +37 +37 очень
душно
1011.2 993.4
10 20.11 ЮЗ 1
{2}
н/о н/о +27.5 +21.5 70 +35 +35 очень
душно
1010.9 992.9
12 20.11 ЮВ 1
{3}
н/о н/о +33.4 +17.7 39 +37 +37 очень
душно
1011.1 993.5
13 20.11 Ю 1
{4}
н/о н/о +35.6 +16.7 33 +38 +38 очень
душно
1010.5 993.0
14 20.11 В 2
{5}
н/о н/о +36.6 +15.9 29 +38 +38 очень
душно
1009.5 992.1
15 20.11 ЮВ 2
{4}
н/о н/о +38.4 +15.7 26 +40 +40 очень
душно
1008.0 990.7
17 20.11 В 2
{4}
н/о н/о +38.5 +14.9 25 +40 +40 очень
душно
1005.5 988.2
16 20.11 ЮВ 1
{4}
н/о н/о +39.1 +14.9 24 +40 +40 очень
душно
1006.5 989.3
18 20.11 СВ 2
{4}
н/о н/о +39.2 +14.0 23 +40 +40 очень
душно
1004.7 987.5
19 20.11 СВ 2
{4}
н/о н/о +38.4 +13.6 23 +39 +39 очень
душно
1004.8 987.5
20 20.11 В 2
{3}
н/о н/о +38.0 +13.2 23 +38 +38 очень
жарко
1005.2 987.9
21 20.11 В 1
{3}
н/о н/о +36.5 +14.0 26 +37 +37 очень
жарко
1006.0 988.6

 

Местоположение метеостанции Piripiri (Бразилия): широта -4.28 долгота -41.80 высота над уровнем моря 163 м.

В архиве по умолчанию представлена погода в Piripiri за последнюю неделю. Архивные данные за месяц целиком и за предыдущие месяцы, начиная с января 2011 года, Вы можете получить, выбрав интересующий диапазон дат из раскрывающегося списка и нажав кнопку "Ввод!".


*Определитесь, кто Вы:
робот инопланетянин человек

Внимание! Время в таблицах - всемирное. Для получения местного времени необходимо прибавить поправку, которая в Piripiri равна -3 ч.

Смотрите также архив погоды в соседних городах и на ближайших метеорологических станциях:

Погода в Esperantina (Бразилия) (67 км)
Погода в Castelo do Piaui (Бразилия) (123 км)
Погода в Parnaiba (Бразилия) (133 км)
Погода в Parnaiba (Бразилия) (135 км)
Погода в Teresina (Бразилия) (139 км)
Погода в Teresina (Бразилия) (141 км)
Погода в Crateus (Бразилия) (161 км)
Погода в Crateus (Бразилия) (161 км)
Погода в Sobral (Бразилия) (171 км)
Погода в Sobral (Бразилия) (173 км)

Пояснения к столбцам:

Ветер - указаны скорость ветра в м/с - средняя за 10 мин, порывы в срок и между сроками (в фигурных скобках) и направление, откуда дует ветер: С - северный, СВ - северо-восточный, В - восточный, ЮВ - юго-восточный, Ю - южный, ЮЗ - юго-западный, З - западный, СЗ - северо-западный.
Видимость - горизонтальная дальность видимости в метрах или километрах. При видимости от 1 до 10 км при отсутствии осадков обычно наблюдается дымка, при ухудшении видимости до 1 км и менее - туман. В сухую погоду видимость может ухудшаться дымом, пылью или мглою.
Явления - указаны атмосферные явления, наблюдавшиеся в срок или в последний час перед сроком; фигурными скобками обозначены явления, наблюдавшиеся между сроками (за 1-3 часа до срока); квадратными скобками обозначены град или гололедные отложения с указанием их диаметра в мм.
Облачность - указаны через наклонную черту общая и нижняя облачность в баллах и высота нижней границы облаков в метрах; квадратными скобками обозначены формы облаков: Ci - перистые, Cs - перисто-слоистые, Cc - перисто-кучевые, Ac - высококучевые, As - высокослоистые, Sc - слоисто-кучевые, Ns - слоисто-дождевые, Cu - кучевые, Cb - кучево-дождевые. Подробнее классификацию облаков см. в Атласе облаков (PDF).
T - Температура воздуха - температура, измеренная на высоте 2 м над землей.
Td - Температура точки росы - температура, при понижении до которой содержащийся в воздухе водяной пар достигнет насыщения.
f - Относительная влажность воздуха - влажноcть воздуха, измеренная на высоте 2 м над землей.
Te - Эффективная температура - температура, которую ощущает одетый по сезону человек в тени. Характеристика душности погоды. При расчете учитывается влияние влажности воздуха и скорости ветра на теплоощущения человека.
Tes - Эффективная температура на солнце - температура, которую ощущает человек, с поправкой на солнечный нагрев. Характеристика знойности погоды. Зависит от высоты солнца над горизонтом, облачности и скорости ветра. Ночью, в пасмурную погоду, а также при ветре 12 м/с и более поправка равна нулю.
P - Атмосферное давление - приведенное к уровню моря атмосферное давление.
Po - Атмосферное давление - измеренное на уровне метеостанции атмосферное давление.
Tmin - Минимальная температура - минимум температуры воздуха на высоте 2 м над землей.
Tmax - Максимальная температура - максимум температуры воздуха на высоте 2 м над землей.
R - Количество осадков - Количество выпавших осадков за период времени, мм. При наведении курсора мыши на число - период времени, за который выпало указанное количество осадков.
R24 - Количество осадков - Количество выпавших осадков за 24 часа, мм.
S - Снежный покров - Высота снежного покрова, см. При наведении курсора мыши на число - состояние снежного покрова и степень покрытия местности в баллах.